TimeEST,TemperatureF,Dew PointF,Humidity,Sea Level PressureIn,VisibilityMPH,Wind Direction,Wind SpeedMPH,Gust SpeedMPH,PrecipitationIn,Events,Conditions,WindDirDegrees,DateUTC
12:54 AM,32.0,21.0,64,29.77,-9999.0,SW,12.7,-,N/A,,Unknown,230,2013-01-01 05:54:00
1:54 AM,33.1,21.0,61,29.78,-9999.0,SW,11.5,20.7,N/A,,Unknown,230,2013-01-01 06:54:00
2:54 AM,32.0,21.0,64,29.77,-9999.0,SW,12.7,19.6,N/A,,Unknown,230,2013-01-01 07:54:00
3:54 AM,32.0,21.0,64,29.75,-9999.0,WSW,12.7,19.6,N/A,,Unknown,240,2013-01-01 08:54:00
4:54 AM,32.0,21.9,66,29.76,-9999.0,WSW,15.0,-,N/A,,Unknown,250,2013-01-01 09:54:00
5:54 AM,33.1,21.9,64,29.76,-9999.0,WSW,11.5,19.6,N/A,,Unknown,240,2013-01-01 10:54:00
6:54 AM,32.0,21.9,66,29.77,-9999.0,WSW,12.7,19.6,N/A,,Unknown,240,2013-01-01 11:54:00
7:54 AM,32.0,23.0,69,29.78,-9999.0,SW,10.4,18.4,N/A,,Unknown,230,2013-01-01 12:54:00
8:54 AM,33.1,23.0,66,29.78,-9999.0,West,13.8,21.9,N/A,,Unknown,270,2013-01-01 13:54:00
9:54 AM,34.0,17.1,50,29.78,-9999.0,West,19.6,43.7,N/A,,Unknown,280,2013-01-01 14:54:00
10:54 AM,32.0,18.0,56,29.78,-9999.0,West,23.0,34.5,N/A,,Unknown,280,2013-01-01 15:54:00
11:54 AM,33.1,16.0,50,29.77,-9999.0,WNW,25.3,38.0,N/A,,Unknown,290,2013-01-01 16:54:00
12:54 PM,32.0,16.0,52,29.76,-9999.0,NW,19.6,31.1,N/A,,Unknown,310,2013-01-01 17:54:00
1:54 PM,30.9,14.0,50,29.75,-9999.0,WNW,24.2,36.8,N/A,,Unknown,300,2013-01-01 18:54:00
2:54 PM,30.0,14.0,51,29.77,-9999.0,WNW,13.8,26.5,N/A,,Unknown,300,2013-01-01 19:54:00
3:54 PM,28.0,12.9,53,29.78,-9999.0,West,17.3,25.3,N/A,,Unknown,280,2013-01-01 20:54:00
4:54 PM,27.0,12.9,56,29.79,-9999.0,WNW,13.8,25.3,N/A,,Unknown,290,2013-01-01 21:54:00
5:54 PM,26.1,12.0,55,29.83,-9999.0,West,16.1,26.5,N/A,,Unknown,280,2013-01-01 22:54:00
6:54 PM,25.0,12.0,58,29.86,-9999.0,WNW,13.8,23.0,N/A,,Unknown,300,2013-01-01 23:54:00
7:54 PM,24.1,10.0,55,29.88,-9999.0,NW,17.3,25.3,N/A,,Unknown,310,2013-01-02 00:54:00
8:54 PM,21.9,9.0,58,29.88,-9999.0,WNW,13.8,27.6,N/A,,Unknown,300,2013-01-02 01:54:00
9:54 PM,21.0,9.0,60,29.90,-9999.0,WNW,15.0,24.2,N/A,,Unknown,300,2013-01-02 02:54:00
10:54 PM,19.0,8.1,62,29.92,-9999.0,NW,8.1,-,N/A,,Unknown,320,2013-01-02 03:54:00
11:54 PM,18.0,6.1,60,29.93,-9999.0,NW,11.5,17.3,N/A,,Unknown,310,2013-01-02 04:54:00